Change the Weather History Date:

Monday, June 24, 2013

  Actual Average Record
Temperature  
Mean Temperature 62 °F -  
Max Temperature 66 °F 81 °F 104 °F (1976)
Min Temperature 59 °F 53 °F 46 °F (1971)
Degree Days  
Heating Degree Days 2    
Growing Degree Days 12 (Base 50)    
Moisture  
Dew Point 58 °F    
Average Humidity 83    
Maximum Humidity 94    
Minimum Humidity 73    
Precipitation  
Precipitation 0.00 in - - ()
Sea Level Pressure  
Sea Level Pressure 29.86 in    
Wind  
Wind Speed 4 mph (North)    
Max Wind Speed 10 mph    
Max Gust Speed -    
Visibility 10 miles    
Events Rain    
Averages and records for this station are not official NWS values.
T = Trace of Precipitation, MM = Missing Value Source: NWS Daily Summary

Daily Weather History Graph

Daily Weather History Graph

Search for Another Location

Airport or City:

Trip Planner

Search our weather history database for the weather conditions in past years. The results will help you decide how hot, cold, wet, or windy it might be!

Date:

Astronomy

Jun. 24, 2013 Rise Set
Actual Time 5:49 AM PDT 8:34 PM PDT
Civil Twilight 5:17 AM PDT 9:05 PM PDT
Nautical Twilight 4:38 AM PDT 9:44 PM PDT
Astronomical Twilight 3:54 AM PDT 10:28 PM PDT
Moon 9:43 PM PDT (6/24) 7:20 AM PDT (6/24)
Length of Visible Light 15h 47m
Length of Day
14h 45m
Full, 97% of the Moon is Illuminated
Jun 24
Full
Jun 29
Last Quarter
Jul 8
New
Jul 15
First Quarter
Jul 22
Full

Hourly Weather History & Observations

Time (PDT) Temp. Dew Point Humidity Pressure Visibility Wind Dir Wind Speed Gust Speed Precip Events Conditions
12:15 AM 64.4 °F 57.2 °F 77% 29.83 in 10.0 mi WSW 3.5 mph - N/A   Overcast
12:35 AM 64.4 °F 57.2 °F 77% 29.84 in 10.0 mi NNW 3.5 mph - N/A   Overcast
12:50 AM 62.6 °F 57.2 °F 82% 29.83 in 10.0 mi NNW 4.6 mph - N/A   Overcast
1:15 AM 62.6 °F 57.2 °F 82% 29.82 in 10.0 mi Calm Calm - N/A   Overcast
1:35 AM 64.4 °F 57.2 °F 77% 29.82 in 10.0 mi Calm Calm - N/A   Overcast
1:50 AM 62.6 °F 57.2 °F 82% 29.82 in 10.0 mi NNE 3.5 mph - N/A   Overcast
2:15 AM 62.6 °F 57.2 °F 82% 29.82 in 10.0 mi North 3.5 mph - N/A   Overcast
2:30 AM 60.8 °F 57.2 °F 88% 29.82 in 10.0 mi Calm Calm - N/A   Overcast
2:50 AM 62.6 °F 57.2 °F 82% 29.82 in 10.0 mi Calm Calm - N/A   Overcast
3:15 AM 62.6 °F 57.2 °F 82% 29.81 in 10.0 mi Calm Calm - N/A   Overcast
3:30 AM 62.6 °F 57.2 °F 82% 29.81 in 10.0 mi NNW 3.5 mph - N/A   Overcast
3:50 AM 62.6 °F 57.2 °F 82% 29.81 in 10.0 mi North 4.6 mph - N/A   Overcast
4:15 AM 60.8 °F 57.2 °F 88% 29.81 in 10.0 mi NNE 3.5 mph - N/A   Overcast
4:35 AM 62.6 °F 57.2 °F 82% 29.81 in 10.0 mi North 4.6 mph - N/A   Overcast
4:50 AM 60.8 °F 57.2 °F 88% 29.82 in 10.0 mi NNW 3.5 mph - N/A   Overcast
5:10 AM 60.8 °F 57.2 °F 88% 29.82 in 10.0 mi NNE 3.5 mph - N/A   Overcast
5:35 AM 60.8 °F 55.4 °F 82% 29.83 in 10.0 mi NNW 3.5 mph - N/A Rain Light Rain
5:50 AM 60.8 °F 57.2 °F 88% 29.83 in 10.0 mi NNW 4.6 mph - N/A Rain Light Rain
6:10 AM 59.0 °F 57.2 °F 94% 29.83 in 10.0 mi North 3.5 mph - N/A Rain Light Rain
6:30 AM 59.0 °F 57.2 °F 94% 29.83 in 10.0 mi NNW 3.5 mph - N/A Rain Light Rain
6:55 AM 59.0 °F 57.2 °F 94% 29.84 in 10.0 mi NW 6.9 mph - N/A Rain Light Rain
7:48 AM 59.0 °F 57.2 °F 94% 29.85 in 8.0 mi West 4.6 mph - N/A Rain Light Rain
8:51 AM 60.8 °F 57.2 °F 88% 29.86 in 10.0 mi NE 4.6 mph - N/A   Overcast
9:21 AM 60.8 °F 57.2 °F 88% 29.87 in 10.0 mi NNE 4.6 mph - N/A   Overcast
9:47 AM 62.6 °F 57.2 °F 82% 29.88 in 10.0 mi North 3.5 mph - N/A   Overcast
10:31 AM 62.6 °F 57.2 °F 82% 29.88 in 10.0 mi NNE 5.8 mph - N/A   Overcast
10:47 AM 62.6 °F 57.2 °F 82% 29.90 in 10.0 mi North 8.1 mph - N/A   Overcast
11:47 AM 60.8 °F 57.2 °F 88% 29.90 in 10.0 mi North 3.5 mph - N/A   Overcast
12:07 PM 62.6 °F 57.2 °F 82% 29.90 in 10.0 mi North 5.8 mph - N/A   Overcast
12:47 PM 62.6 °F 57.2 °F 82% 29.90 in 10.0 mi North 6.9 mph - N/A   Overcast
1:20 PM 62.6 °F 57.2 °F 82% 29.91 in 10.0 mi WNW 4.6 mph - N/A   Overcast
1:55 PM 64.4 °F 57.2 °F 77% 29.90 in 10.0 mi WNW 4.6 mph - N/A   Overcast
2:50 PM 64.4 °F 57.2 °F 77% 29.90 in 10.0 mi North 4.6 mph - N/A   Overcast
3:47 PM 66.2 °F 59.0 °F 78% 29.89 in 10.0 mi NNE 9.2 mph - N/A Rain Light Rain
4:47 PM 64.4 °F 59.0 °F 83% 29.89 in 10.0 mi North 9.2 mph - N/A   Overcast
5:47 PM 64.4 °F 60.8 °F 88% 29.89 in 10.0 mi NNE 3.5 mph - N/A   Overcast
6:47 PM 64.4 °F 59.0 °F 83% 29.89 in 10.0 mi NNE 4.6 mph - N/A   Overcast
7:47 PM 64.4 °F 59.0 °F 83% 29.90 in 10.0 mi Calm Calm - N/A   Overcast
8:47 PM 64.4 °F 59.0 °F 83% 29.90 in 10.0 mi ESE 4.6 mph - N/A   Overcast
9:15 PM 64.4 °F 59.0 °F 83% 29.90 in 10.0 mi South 5.8 mph - N/A   Overcast
9:30 PM 66.2 °F 57.2 °F 73% 29.90 in 10.0 mi South 9.2 mph - N/A   Overcast
9:50 PM 64.4 °F 57.2 °F 77% 29.91 in 10.0 mi SE 8.1 mph - N/A   Overcast
10:10 PM 64.4 °F 57.2 °F 77% 29.91 in 10.0 mi ESE 6.9 mph - N/A   Overcast
10:35 PM 64.4 °F 60.8 °F 88% 29.92 in 10.0 mi East 3.5 mph - N/A   Overcast
10:50 PM 64.4 °F 60.8 °F 88% 29.92 in 10.0 mi SE 4.6 mph - N/A   Overcast
11:10 PM 64.4 °F 57.2 °F 77% 29.91 in 10.0 mi SE 8.1 mph - N/A   Overcast
11:35 PM 64.4 °F 57.2 °F 77% 29.91 in 10.0 mi South 10.4 mph - N/A   Overcast
11:50 PM 64.4 °F 55.4 °F 73% 29.91 in 10.0 mi SSE 9.2 mph - N/A   Overcast